Regional Weather Roundup
Issued by NWS

Home | Current Version | Previous Version | Text Only | Print | Product List | Glossary Off
Versions: 1 2 3 4 5 6 7 8 9 10 11 12 13 14 15 16 17 18 19 20 21 22 23 24 25 26 27 28 29 30 31 32 33 34 35 36 37 38 39 40 41 42 43 44 45 46 47 48 49 50

000
ASUS43 KMPX 281010
RWRMN
WEATHER ROUNDUP FOR MINNESOTA
NATIONAL WEATHER SERVICE TWIN CITIES/CHANHASSEN MN
400 AM CST SUN DEC 28 2014


NOTE: "FAIR" INDICATES FEW OR NO CLOUDS BELOW 12,000 FEET WITH NO
SIGNIFICANT WEATHER AND/OR OBSTRUCTIONS TO VISIBILITY. N/A MEANS
CURRENT SKY AND/OR WEATHER CONDITIONS ARE NOT AVAILABLE.

MNZ060>063-068>070-281100-
   Twin Cities Metro

CITY           SKY/WX    TMP DP  RH WIND       PRES   REMARKS
TWIN CITIES    CLEAR     11   6  81 SW5       30.10S WCI   3
ST PAUL        CLEAR     12   7  80 CALM      30.12S
CRYSTAL        CLEAR     12   6  77 SW5       30.08S WCI   4
BLAINE         CLEAR     14  10  85 S5        30.08S WCI   6
LAKEVILLE      CLEAR      9   7  92 CALM      30.09S
EDEN PRAIRIE   PTCLDY     8   4  83 W5        30.09S WCI   0
SOUTH ST PAUL  PTCLDY    13   8  81 CALM      30.10S
LAKE ELMO      MOCLDY    14  10  85 SW3       30.09S
$$
MNZ001>005-007-008-013>017-022>024-027-028-281100-
   Northwest Minnesota

CITY           SKY/WX    TMP DP  RH WIND       PRES   REMARKS
BEMIDJI        FLURRIES   9   4  83 N10       30.06R WCI  -6
HALLOCK        CLEAR     -8 -15  71 N12       30.21R WCI -27
ROSEAU         CLEAR     -4  -9  77 W6        30.15R WCI -16
WARROAD        CLOUDY     0  -6  78 NW5       30.13R WCI -10
THIEF RVR FALL CLOUDY     0  -4  85 NW9       30.14R WCI -16
CROOKSTON      CLEAR      0  -6  78 N13       30.20R WCI -18
FOSSTON        CLOUDY     1  -4  78 N13       30.11R WCI -16
DETROIT LAKES  CLOUDY    18  14  86 N6        30.06S WCI   9
MOORHEAD       MIX PCPN  12  10  92 N16       30.12S WCI  -4
PARK RAPIDS    CLOUDY    17  11  77 N13       30.03R WCI   4
MAHNOMEN       FAIR       5   1  83 N15       30.09R WCI -13
$$
MNZ006-009>011-018-025>026-281100-
   North Central Minnesota

CITY           SKY/WX    TMP DP  RH WIND       PRES   REMARKS
BAUDETTE       CLOUDY     0  -6  76 NW13      30.10S WCI -18
FLAG ISLAND    CLEAR     -6  -9  84 NW14      30.13R WCI -26
INTL FALLS     CLOUDY    -2  -6  83 NW12      30.08R WCI -20
WASKISH        PTCLDY    -2  -6  84 CALM      30.11R
BIG FORK       PTCLDY     7   1  78 NW7       30.05R WCI  -5
LONGVILLE      FLURRIES  16  10  79 NW3       30.04R
GRAND RAPIDS   CLOUDY    14   9  79 N13       30.01R WCI   0
CRANE LAKE     PTCLDY     3   0  85 NW3       30.06R
ORR            CLOUDY     7   0  72 NW7       30.00R WCI  -5
COOK           MOCLDY     9   3  78 NW5       30.02R WCI   0
WALKER         CLOUDY    13   8  78 N5        30.04R WCI   6
$$
MNZ012-019>021-037-281100-
   Northeast Minnesota

CITY           SKY/WX    TMP DP  RH WIND       PRES   REMARKS
DULUTH         FLURRIES  18  11  74 NW9       29.98S WCI   7
ELY            PTCLDY     9   3  78 NW9G16    29.98R WCI  -5
HIBBING        CLOUDY    15   7  70 NW8       30.01R WCI   4
EVELETH        FLURRIES  16  10  79 NW6       30.01R WCI   7
DULUTH HARBOR  CLOUDY    21  16  79 CALM      30.05S
TWO HARBORS    CLOUDY    19  12  73 NW3       29.98S
SILVER BAY     CLOUDY    18  10  73 W5        29.97S WCI  11
GRAND MARAIS     N/A     16   7  67 CALM      29.98F
G MARAIS ARPRT FLURRIES   7   1  78 W5        29.89S WCI  -2
$$
MNZ029>031-032-039>041-046>048-054>057-064-281100-
   West Central Minnesota

CITY           SKY/WX    TMP DP  RH WIND       PRES   REMARKS
FERGUS FALLS   MOCLDY    21  18  86 N9        30.08S WCI  11
WHEATON        CLOUDY    18  16  93 W6        30.09S WCI   9
MORRIS         PTCLDY    12  10  92 W5        30.05S WCI   4
ALEXANDRIA     CLEAR     13  11  92 W3        30.03S
ELBOW LAKE     CLOUDY    15  14  95 NW3       30.05R
WADENA         CLOUDY    21  18  86 NW7       30.02S WCI  13
GLENWOOD       CLEAR     10   9  92 W7        30.04S WCI   0
APPLETON       PTCLDY    12  10  92 W7        30.07S WCI   2
BENSON         PTCLDY    10   9  92 CALM      30.06S
ORTONVILLE     PTCLDY    16  12  86 NW8       30.07S WCI   5
MADISON        PTCLDY    19  16  86 W7        30.08S WCI  10
WILLMAR        FAIR      12   9  85 W3        30.07S
$$
MNZ033>034-036-042>043-049>051-058-059-281100-
   Central Minnesota

CITY           SKY/WX    TMP DP  RH WIND       PRES   REMARKS
ST CLOUD       PTCLDY    17  11  77 S3        30.06R
SAUK CENTRE    FAIR      10   8  95 CALM      30.05R
PAYNESVILLE    CLEAR      8   7  96 SW6       30.06S WCI  -2
AITKIN         FLURRIES  25  18  74 NW3       30.01R
PINE RIVER     LGT SNOW  19  16  86 N7        30.05S WCI  10
BRAINERD       CLOUDY    20  17  88 W6        30.03S WCI  12
STAPLES        CLOUDY    21  18  86 N6        30.02S WCI  14
LONG PRAIRIE   CLOUDY    14  12  92 CALM      30.04R
LITTLE FALLS   CLOUDY    18  14  86 CALM      30.05R
LITCHFIELD     CLEAR     10  10 100 CALM      30.07S
BUFFALO        CLEAR      8   5  89 CALM      30.09S
MAPLE LAKE     CLEAR     10   9  92 CALM      30.08S
$$
MNZ037-044-045-052-053-281100-
   East Central Minnesota

CITY           SKY/WX    TMP DP  RH WIND       PRES   REMARKS
PRINCETON      CLOUDY    18  14  86 CALM      30.05S
MORA           CLOUDY    16  12  86 SW3       30.06S
CAMBRIDGE      CLOUDY    16   9  73 S5        30.05S WCI   9
RUSH CITY      CLOUDY    11   9  92 CALM      30.07S
MOOSE LAKE     LGT SNOW  19  16  86 CALM      30.01S
HINCKLEY       FLURRIES  18  16  93 CALM      30.05S
CLOQUET        FLURRIES  19  16  86 W6        30.00R WCI  11
MCGREGOR       CLOUDY    21  19  93 NW9       30.02S WCI  11
$$
MNZ071>073-080-081-089-090-097-098-281100-
   Southwest Minnesota

CITY           SKY/WX    TMP DP  RH WIND       PRES   REMARKS
MONTEVIDEO     PTCLDY    16  12  86 W6        30.08S WCI   7
GRANITE FALLS  PTCLDY    12   9  88 SW3       30.09S
CANBY          PTCLDY    17  13  85 W7        30.08R WCI   7
MARSHALL       CLOUDY    14   9  79 W7        30.07R WCI   4
REDWOOD FALLS  MOCLDY    11   8  88 SW9       30.08S WCI  -2
OLIVIA         PTCLDY    10   9  92 SW6       30.07S WCI   1
PIPESTONE      FOG        5   3  92 CALM      30.05S VSB 1
WINDOM         CLEAR      9   7  92 S7        30.07F WCI  -3
WORTHINGTON    PTCLDY    10 -31  13 SW8       30.07S WCI  -1
JACKSON        CLEAR     12   9  85 SW8       30.07F WCI   1
TRACY          CLOUDY    15  11  87 SW8       30.07R WCI   3
SLAYTON        PTCLDY    11   9  89 SW9       30.06R WCI  -1
$$
MNZ065>067-074>077-082>085-091>093-281100-
   South Central Minnesota

CITY           SKY/WX    TMP DP  RH WIND       PRES   REMARKS
MANKATO        CLEAR      9   3  78 S5        30.09S WCI   0
NEW ULM        PTCLDY    10   7  85 SW5       30.08F WCI   2
ST JAMES       CLEAR     10   7  85 S5        30.09F WCI   2
FAIRMONT       CLEAR      9   3  78 CALM      30.08F
GLENCOE        MOCLDY     5   3  90 S3        30.08S
FARIBAULT      MOCLDY     7   5  92 S3        30.09F
OWATONNA       CLEAR      9   5  85 CALM      30.08F
WASECA         CLEAR      7   3  85 S3        30.10F
ALBERT LEA     CLEAR     10   9  92 SW3       30.09F
$$
MNZ078>079-086>088-094>096-281100-
   Southeast Minnesota

CITY           SKY/WX    TMP DP  RH WIND       PRES   REMARKS
ROCHESTER      CLEAR      5   3  91 SW5       30.09S WCI  -4
RED WING       CLOUDY     7   1  78 CALM      30.11R
STANTON        PTCLDY     8   4  84 SW7       30.09R WCI  -3
DODGE CENTER   PTCLDY     7   3  85 SW7       30.07F WCI  -5
WINONA         CLEAR     10   7  85 CALM      30.14F
AUSTIN         CLEAR      7   3  85 CALM      30.10S
PRESTON        CLEAR      8   5  88 SW5       30.10F WCI   0
$$
ABBREVIATIONS USED IN REMARKS
   TC - TEMPERATURES IN CELSIUS
  WCI - WIND CHILL INDEX
   HX - HEAT INDEX
  VSB - VISIBILITY
$$


USA.gov is the U.S. government's official web portal to all federal, state and local government web resources and services.